Overview Statistics Trail Chart Weather Telemetry Raw packets
 

This is the latest recevied weather packets stored in our database for station/object KY0TEQ-13. If no packets are shown the sender has not sent any weather packets the latest 10 day(s).

<< 68 69 70 71 72 73 74 >>
Time Temp. Humidity Pressure Rain* Wind** Luminosity Snow
1788204770 15.56° C 81% 1312.7 hPa 1.78 mm - 83 W/m² -
1788204466 15.56° C 81% 1312.9 hPa 0 mm - 51 W/m² -
1788204160 15.56° C 81% 1312.9 hPa 0 mm - 119 W/m² -
1788203857 15.56° C 81% 1313 hPa 0 mm - 161 W/m² -
1788203552 15° C 81% 1313 hPa 1.27 mm - 169 W/m² -
1788203247 15° C 81% 1312.5 hPa 1.27 mm - 137 W/m² -
1788202946 15° C 80% 1312.5 hPa 0 mm - 99 W/m² -
1788202641 15° C 80% 1313 hPa 1.78 mm - 74 W/m² -
1788202337 15.56° C 80% 1312.9 hPa 1.78 mm - 96 W/m² -
1788202037 15.56° C 78% 1313.2 hPa 0 mm - 90 W/m² -
1788201733 15.56° C 77% 1313.2 hPa 1.27 mm - 99 W/m² -
1788201432 15.56° C 76% 1313.4 hPa 1.27 mm - 90 W/m² -
1788201131 16.11° C 75% 1313.4 hPa 0 mm - 86 W/m² -
1788200831 16.11° C 72% 1313.4 hPa 0 mm - 77 W/m² -
1788200527 16.67° C 69% 1313.4 hPa 0 mm - 89 W/m² -
1788200226 16.67° C 71% 1313.4 hPa 0 mm - 115 W/m² -
1788199921 16.67° C 67% 1313.4 hPa 0 mm - 121 W/m² -
1788199616 17.22° C 67% 1313.4 hPa 0 mm - 124 W/m² -
1788199306 17.22° C 67% 1313.3 hPa 0 mm - 111 W/m² -
1788199006 17.22° C 68% 1313 hPa 0 mm - 100 W/m² -
1788198703 17.22° C 66% 1313 hPa 0 mm - 104 W/m² -
1788198403 17.78° C 66% 1312.8 hPa 0 mm - 102 W/m² -
1788198098 17.78° C 64% 1312.9 hPa 0 mm - 88 W/m² -
1788197801 17.78° C 63% 1312.7 hPa 0 mm - 106 W/m² -
1788197493 17.78° C 62% 1312.7 hPa 0 mm - 128 W/m² -

* Rain latest hour (hover to see other rain measurements)
** Current wind speed in m/s (hover to see current wind gust speed)